This is the latest recevied weather packets stored in our database for station/object K8DJB-1. If no packets are shown the sender has not sent any weather packets the latest 10 day(s).
| Time | Temp. | Humidity | Pressure | Rain* | Wind** | Luminosity | Snow |
|---|---|---|---|---|---|---|---|
| 1777683620 | 5.56° C | 53% | 1016.2 hPa | 0 mm | - | - | - |
| 1777683320 | 5.56° C | 52% | 1016.1 hPa | 0 mm | - | - | - |
| 1777683020 | 5.56° C | 53% | 1016.1 hPa | 0 mm | - | - | - |
| 1777682720 | 5.56° C | 52% | 1016.1 hPa | 0 mm | - | - | - |
| 1777682120 | 6.11° C | 53% | 1016 hPa | 0 mm | - | - | - |
| 1777681820 | 6.11° C | 53% | 1015.9 hPa | 0 mm | - | - | - |
| 1777681520 | 6.11° C | 53% | 1015.8 hPa | 0 mm | - | - | - |
| 1777681221 | 6.11° C | 54% | 1015.8 hPa | 0 mm | - | - | - |
| 1777680920 | 6.11° C | 52% | 1015.9 hPa | 0 mm | - | - | - |
| 1777680320 | 6.11° C | 52% | 1015.8 hPa | 0 mm | - | - | - |
| 1777680019 | 6.11° C | 52% | 1015.7 hPa | 0 mm | - | - | - |
| 1777679719 | 6.11° C | 52% | 1015.7 hPa | 0 mm | - | - | - |
| 1777679135 | 6.11° C | 52% | 1015.5 hPa | 0 mm | - | - | - |
| 1777678835 | 6.11° C | 52% | 1015.7 hPa | 0 mm | - | - | - |
| 1777678535 | 6.67° C | 52% | 1015.5 hPa | 0 mm | - | - | - |
| 1777678235 | 6.67° C | 53% | 1015.5 hPa | 0 mm | - | - | - |
| 1777677935 | 6.67° C | 54% | 1015.5 hPa | 0 mm | - | - | - |
| 1777677335 | 7.22° C | 51% | 1015.5 hPa | 0 mm | - | - | - |
| 1777677035 | 7.22° C | 50% | 1015.5 hPa | 0 mm | - | - | - |
| 1777676735 | 7.78° C | 51% | 1015.5 hPa | 0 mm | - | - | - |
| 1777676135 | 7.78° C | 50% | 1015.5 hPa | 0 mm | - | - | - |
| 1777675835 | 7.78° C | 51% | 1015.3 hPa | 0 mm | - | - | - |
| 1777675535 | 7.78° C | 51% | 1015.2 hPa | 0 mm | - | - | - |
| 1777675235 | 7.78° C | 49% | 1015.3 hPa | 0 mm | - | - | - |
| 1777674935 | 7.22° C | 49% | 1015.3 hPa | 0 mm | - | - | - |
* Rain latest hour (hover to see other rain measurements)
** Current wind speed in m/s (hover to see current wind gust speed)